{"data":{"norad_id":59467,"intl_designator":"2024-068N","name":"STARLINK-31592","alt_names":[],"object_type":"PAYLOAD","status":"ACTIVE","operator":null,"country":"US","launch_date":"2024-04-10","launch_site_code":"AFETR","launch_vehicle":null,"mission":null,"orbit_class":"UNKNOWN","rcs_meters":null,"size_class":null,"mass_kg":null,"dimensions":null,"purposes":["comms"],"wikipedia_slug":null,"has_3d_model":false,"image_url":null,"decayed_at":null,"tle_current":{"epoch":"2026-05-24T21:22:48.442944Z","epoch_age_seconds":91735,"freshness":"FRESH","line1":"1 59467U 24068N   26144.89083846  .00001072  00000+0  48489-4 0  9990","line2":"2 59467  43.0043 324.4411 0002190 274.0147  86.0455 15.27584201120177","mean_motion":15.27584201,"eccentricity":0.000219,"inclination_deg":43.0043,"raan_deg":324.4411,"arg_perigee_deg":274.0147,"mean_anomaly_deg":86.0455,"bstar":4.8489e-5,"rev_number":12017,"period_min":94.266489471241,"perigee_km":481.53391976301,"apogee_km":484.53911376335,"semimajor_km":6861.1735167632,"source":"CELESTRAK","updated_at":"2026-05-25T13:38:18.950250Z"}}}